| time (UTC) | temp C | wind direction | speed KPH | gust KPH | rain 1hr cm | rain 24hr cm | rain mn cm | humidity % | barometer mb |
| 20260506024540 | 22 | 304 | 1.6 | 11.3 | 0.00 | 0.00 | 0.00 | 42 | 1009.0 |
| 20260506024031 | 22 | 310 | 1.6 | 11.3 | 0.00 | 0.00 | 0.00 | 42 | 1008.9 |
| 20260506023530 | 22 | 295 | 3.2 | 12.9 | 0.00 | 0.00 | 0.00 | 41 | 1008.9 |
| 20260506023028 | 23 | 333 | 0.0 | 12.9 | 0.00 | 0.00 | 0.00 | 41 | 1008.8 |
| 20260506022529 | 23 | 301 | 0.0 | 12.9 | 0.00 | 0.00 | 0.00 | 40 | 1008.9 |
| 20260506022030 | 23 | 283 | 1.6 | 12.9 | 0.00 | 0.00 | 0.00 | 40 | 1008.9 |
| 20260506021543 | 23 | 299 | 1.6 | 9.7 | 0.00 | 0.00 | 0.00 | 40 | 1008.9 |
| 20260506021028 | 23 | 290 | 4.8 | 14.5 | 0.00 | 0.00 | 0.00 | 40 | 1008.9 |
| 20260506020531 | 23 | 303 | 3.2 | 11.3 | 0.00 | 0.00 | 0.00 | 40 | 1009.0 |
| 20260506020029 | 23 | 307 | 1.6 | 6.4 | 0.00 | 0.00 | 0.00 | 39 | 1009.0 |
| 20260506015529 | 23 | 314 | 0.0 | 6.4 | 0.00 | 0.00 | 0.00 | 39 | 1008.9 |
| 20260506015029 | 23 | 321 | 0.0 | 4.8 | 0.00 | 0.00 | 0.00 | 39 | 1008.8 |
| 20260506014528 | 23 | 331 | 1.6 | 4.8 | 0.00 | 0.00 | 0.00 | 38 | 1008.8 |
| 20260506014027 | 23 | 306 | 1.6 | 6.4 | 0.00 | 0.00 | 0.00 | 38 | 1008.8 |
| 20260506013527 | 23 | 305 | 1.6 | 6.4 | 0.00 | 0.00 | 0.00 | 37 | 1008.7 |
| 20260506013027 | 23 | 312 | 1.6 | 6.4 | 0.00 | 0.00 | 0.00 | 37 | 1008.7 |
| 20260506012527 | 23 | 313 | 0.0 | 8.0 | 0.00 | 0.00 | 0.00 | 36 | 1008.6 |
| 20260506012028 | 24 | 312 | 1.6 | 8.0 | 0.00 | 0.00 | 0.00 | 36 | 1008.5 |
| 20260506011529 | 24 | 300 | 3.2 | 8.0 | 0.00 | 0.00 | 0.00 | 35 | 1008.5 |
| 20260506011030 | 24 | 302 | 1.6 | 8.0 | 0.00 | 0.00 | 0.00 | 35 | 1008.4 |
| 20260506010527 | 24 | 335 | 3.2 | 8.0 | 0.00 | 0.00 | 0.00 | 35 | 1008.4 |
| 20260506010031 | 24 | 323 | 1.6 | 8.0 | 0.00 | 0.00 | 0.00 | 34 | 1008.4 |
| 20260506005525 | 24 | 293 | 1.6 | 9.7 | 0.00 | 0.00 | 0.00 | 34 | 1008.3 |
| 20260506005029 | 25 | 153 | 3.2 | 12.9 | 0.00 | 0.00 | 0.00 | 33 | 1008.2 |
| 20260506004524 | 25 | 332 | 3.2 | 12.9 | 0.00 | 0.00 | 0.00 | 33 | 1008.1 |
| 20260506004025 | 25 | 319 | 3.2 | 12.9 | 0.00 | 0.00 | 0.00 | 32 | 1008.1 |
| 20260506003525 | 25 | 302 | 4.8 | 12.9 | 0.00 | 0.00 | 0.00 | 32 | 1008.0 |
| 20260506003025 | 25 | 316 | 4.8 | 9.7 | 0.00 | 0.00 | 0.00 | 32 | 1008.0 |
| 20260506002528 | 25 | 305 | 3.2 | 9.7 | 0.00 | 0.00 | 0.00 | 31 | 1007.9 |
| 20260506002024 | 25 | 302 | 4.8 | 9.7 | 0.00 | 0.00 | 0.00 | 31 | 1007.9 |
| 20260506001524 | 25 | 303 | 3.2 | 11.3 | 0.00 | 0.00 | 0.00 | 30 | 1007.9 |
| 20260506001024 | 25 | 329 | 3.2 | 11.3 | 0.00 | 0.00 | 0.00 | 30 | 1007.8 |
| 20260506000524 | 25 | 299 | 4.8 | 9.7 | 0.00 | 0.00 | 0.00 | 29 | 1007.8 |
| 20260506000023 | 25 | 297 | 4.8 | 9.7 | 0.00 | 0.00 | 0.00 | 29 | 1007.8 |
| 20260505235523 | 25 | 300 | 4.8 | 12.9 | 0.00 | 0.00 | 0.00 | 28 | 1007.8 |
| 20260505235023 | 26 | 293 | 6.4 | 12.9 | 0.00 | 0.00 | 0.00 | 27 | 1007.7 |
| 20260505234523 | 26 | 308 | 4.8 | 16.1 | 0.00 | 0.00 | 0.00 | 27 | 1007.7 |
| 20260505234022 | 26 | 312 | 9.7 | 16.1 | 0.00 | 0.00 | 0.00 | 26 | 1007.6 |
| 20260505233523 | 26 | 296 | 8.0 | 16.1 | 0.00 | 0.00 | 0.00 | 26 | 1007.7 |
| 20260505233022 | 26 | 321 | 8.0 | 16.1 | 0.00 | 0.00 | 0.00 | 26 | 1007.7 |
| 20260505232522 | 26 | 314 | 4.8 | 11.3 | 0.00 | 0.00 | 0.00 | 28 | 1007.7 |
| 20260505232023 | 26 | 305 | 4.8 | 11.3 | 0.00 | 0.00 | 0.00 | 28 | 1007.6 |
| 20260505231527 | 26 | 302 | 4.8 | 12.9 | 0.00 | 0.00 | 0.00 | 28 | 1007.6 |
| 20260505231021 | 26 | 289 | 4.8 | 12.9 | 0.00 | 0.00 | 0.00 | 28 | 1007.6 |
| 20260505230521 | 26 | 291 | 4.8 | 11.3 | 0.00 | 0.00 | 0.00 | 28 | 1007.6 |
| 20260505230023 | 26 | 305 | 4.8 | 12.9 | 0.00 | 0.00 | 0.00 | 27 | 1007.7 |
| 20260505225522 | 26 | 303 | 8.0 | 12.9 | 0.00 | 0.00 | 0.00 | 27 | 1007.7 |
| 20260505225022 | 27 | 304 | 6.4 | 12.9 | 0.00 | 0.00 | 0.00 | 26 | 1007.7 |
| 20260505224527 | 27 | 316 | 4.8 | 12.9 | 0.00 | 0.00 | 0.00 | 27 | 1007.7 |
| 20260505224021 | 27 | 326 | 8.0 | 14.5 | 0.00 | 0.00 | 0.00 | 26 | 1007.6 |
| 20260505223520 | 27 | 305 | 8.0 | 14.5 | 0.00 | 0.00 | 0.00 | 26 | 1007.6 |
| 20260505223020 | 27 | 302 | 8.0 | 12.9 | 0.00 | 0.00 | 0.00 | 26 | 1007.7 |
| 20260505222519 | 27 | 307 | 6.4 | 14.5 | 0.00 | 0.00 | 0.00 | 27 | 1007.9 |
| 20260505222019 | 27 | 315 | 9.7 | 14.5 | 0.00 | 0.00 | 0.00 | 27 | 1007.8 |
| 20260505221519 | 27 | 305 | 3.2 | 12.9 | 0.00 | 0.00 | 0.00 | 28 | 1007.7 |
| 20260505221018 | 27 | 318 | 4.8 | 16.1 | 0.00 | 0.00 | 0.00 | 28 | 1007.8 |
| 20260505220518 | 27 | 307 | 8.0 | 16.1 | 0.00 | 0.00 | 0.00 | 27 | 1007.7 |
| 20260505220019 | 27 | 307 | 4.8 | 16.1 | 0.00 | 0.00 | 0.00 | 27 | 1007.6 |
| 20260505215518 | 27 | 294 | 8.0 | 16.1 | 0.00 | 0.00 | 0.00 | 27 | 1007.5 |
| 20260505215018 | 27 | 333 | 6.4 | 14.5 | 0.00 | 0.00 | 0.00 | 27 | 1007.5 |
| 20260505214518 | 27 | 314 | 4.8 | 14.5 | 0.00 | 0.00 | 0.00 | 27 | 1007.6 |
| 20260505214018 | 27 | 320 | 4.8 | 11.3 | 0.00 | 0.00 | 0.00 | 27 | 1007.4 |
| 20260505213517 | 27 | 295 | 6.4 | 17.7 | 0.00 | 0.00 | 0.00 | 27 | 1007.5 |
| 20260505213019 | 27 | 306 | 6.4 | 17.7 | 0.00 | 0.00 | 0.00 | 27 | 1007.4 |
| 20260505212520 | 27 | 299 | 6.4 | 16.1 | 0.00 | 0.00 | 0.00 | 27 | 1007.5 |
| 20260505212016 | 27 | 305 | 4.8 | 17.7 | 0.00 | 0.00 | 0.00 | 27 | 1007.5 |
| 20260505211533 | 27 | 313 | 9.7 | 17.7 | 0.00 | 0.00 | 0.00 | 26 | 1007.5 |
| 20260505211016 | 27 | 305 | 9.7 | 17.7 | 0.00 | 0.00 | 0.00 | 27 | 1007.5 |
| 20260505210516 | 28 | 316 | 6.4 | 14.5 | 0.00 | 0.00 | 0.00 | 27 | 1007.5 |
| 20260505210016 | 27 | 309 | 6.4 | 14.5 | 0.00 | 0.00 | 0.00 | 26 | 1007.6 |
| 20260505205517 | 27 | 295 | 8.0 | 16.1 | 0.00 | 0.00 | 0.00 | 26 | 1007.5 |
| 20260505205015 | 27 | 313 | 8.0 | 16.1 | 0.00 | 0.00 | 0.00 | 26 | 1007.5 |
| 20260505204514 | 28 | 305 | 6.4 | 16.1 | 0.00 | 0.00 | 0.00 | 27 | 1007.5 |
| 20260505204014 | 28 | 345 | 4.8 | 14.5 | 0.00 | 0.00 | 0.00 | 26 | 1007.5 |
| 20260505203514 | 28 | 296 | 8.0 | 12.9 | 0.00 | 0.00 | 0.00 | 26 | 1007.4 |
| 20260505203014 | 28 | 289 | 6.4 | 17.7 | 0.00 | 0.00 | 0.00 | 25 | 1007.5 |
| 20260505202514 | 28 | 329 | 9.7 | 17.7 | 0.00 | 0.00 | 0.00 | 25 | 1007.5 |
| 20260505202013 | 28 | 299 | 6.4 | 14.5 | 0.00 | 0.00 | 0.00 | 24 | 1007.4 |
| 20260505201512 | 28 | 314 | 6.4 | 19.3 | 0.00 | 0.00 | 0.00 | 25 | 1007.5 |
| 20260505201015 | 28 | 322 | 8.0 | 17.7 | 0.00 | 0.00 | 0.00 | 24 | 1007.5 |
| 20260505200512 | 28 | 302 | 8.0 | 16.1 | 0.00 | 0.00 | 0.00 | 24 | 1007.5 |
| 20260505200011 | 28 | 316 | 6.4 | 19.3 | 0.00 | 0.00 | 0.00 | 24 | 1007.6 |
| 20260505195510 | 28 | 302 | 12.9 | 19.3 | 0.00 | 0.00 | 0.00 | 24 | 1007.6 |
| 20260505195009 | 28 | 300 | 9.7 | 20.9 | 0.00 | 0.00 | 0.00 | 25 | 1007.6 |
| 20260505194509 | 28 | 297 | 11.3 | 20.9 | 0.00 | 0.00 | 0.00 | 25 | 1007.7 |
| 20260505194010 | 28 | 312 | 8.0 | 16.1 | 0.00 | 0.00 | 0.00 | 25 | 1007.8 |
| 20260505193508 | 28 | 273 | 8.0 | 19.3 | 0.00 | 0.00 | 0.00 | 25 | 1007.8 |
| 20260505193007 | 28 | 326 | 8.0 | 14.5 | 0.00 | 0.00 | 0.00 | 26 | 1007.9 |
| 20260505192506 | 28 | 298 | 6.4 | 12.9 | 0.00 | 0.00 | 0.00 | 26 | 1007.9 |
| 20260505192005 | 29 | 317 | 6.4 | 11.3 | 0.00 | 0.00 | 0.00 | 26 | 1007.9 |
| 20260505191504 | 28 | 311 | 4.8 | 16.1 | 0.00 | 0.00 | 0.00 | 27 | 1008.0 |
| 20260505191002 | 28 | 297 | 4.8 | 16.1 | 0.00 | 0.00 | 0.00 | 28 | 1008.2 |
| 20260505190502 | 28 | 305 | 6.4 | 12.9 | 0.00 | 0.00 | 0.00 | 28 | 1008.2 |
| 20260505190103 | 28 | 314 | 4.8 | 14.5 | 0.00 | 0.00 | 0.00 | 28 | 1008.4 |
| 20260505185600 | 28 | 286 | 6.4 | 14.5 | 0.00 | 0.00 | 0.00 | 28 | 1008.4 |
| 20260505185059 | 28 | 315 | 4.8 | 16.1 | 0.00 | 0.00 | 0.00 | 29 | 1008.4 |
| 20260505184559 | 28 | 295 | 8.0 | 16.1 | 0.00 | 0.00 | 0.00 | 28 | 1008.5 |
| 20260505184057 | 28 | 300 | 3.2 | 14.5 | 0.00 | 0.00 | 0.00 | 30 | 1008.6 |
| 20260505183556 | 28 | 318 | 6.4 | 17.7 | 0.00 | 0.00 | 0.00 | 30 | 1008.6 |
| 20260505183055 | 28 | 288 | 4.8 | 17.7 | 0.00 | 0.00 | 0.00 | 29 | 1008.7 |
| 20260505182557 | 28 | 308 | 4.8 | 16.1 | 0.00 | 0.00 | 0.00 | 31 | 1008.6 |
| 20260505182056 | 28 | 302 | 4.8 | 16.1 | 0.00 | 0.00 | 0.00 | 31 | 1008.7 |
| 20260505181553 | 28 | 290 | 8.0 | 14.5 | 0.00 | 0.00 | 0.00 | 30 | 1008.8 |
| 20260505181052 | 28 | 292 | 4.8 | 9.7 | 0.00 | 0.00 | 0.00 | 31 | 1009.0 |
| 20260505180551 | 28 | 319 | 4.8 | 11.3 | 0.00 | 0.00 | 0.00 | 30 | 1009.1 |
| 20260505180055 | 28 | 290 | 1.6 | 11.3 | 0.00 | 0.00 | 0.00 | 33 | 1009.1 |
| 20260505175549 | 28 | 285 | 3.2 | 12.9 | 0.00 | 0.00 | 0.00 | 31 | 1009.2 |
| 20260505175050 | 27 | 293 | 6.4 | 12.9 | 0.00 | 0.00 | 0.00 | 31 | 1009.2 |
| 20260505174548 | 28 | 298 | 6.4 | 12.9 | 0.00 | 0.00 | 0.00 | 31 | 1009.4 |
| 20260505174047 | 28 | 321 | 6.4 | 12.9 | 0.00 | 0.00 | 0.00 | 30 | 1009.4 |
| 20260505173547 | 28 | 305 | 3.2 | 9.7 | 0.00 | 0.00 | 0.00 | 31 | 1009.4 |
| 20260505173046 | 28 | 235 | 1.6 | 12.9 | 0.00 | 0.00 | 0.00 | 32 | 1009.3 |
| 20260505172549 | 27 | 60 | 1.6 | 12.9 | 0.00 | 0.00 | 0.00 | 33 | 1009.4 |
| 20260505172045 | 27 | 305 | 6.4 | 11.3 | 0.00 | 0.00 | 0.00 | 31 | 1009.5 |
| 20260505171545 | 27 | 305 | 3.2 | 8.0 | 0.00 | 0.00 | 0.00 | 32 | 1009.6 |
| 20260505171045 | 27 | 300 | 3.2 | 12.9 | 0.00 | 0.00 | 0.00 | 31 | 1009.6 |
| 20260505170544 | 27 | 301 | 4.8 | 12.9 | 0.00 | 0.00 | 0.00 | 31 | 1009.7 |
| 20260505170044 | 27 | 312 | 1.6 | 9.7 | 0.00 | 0.00 | 0.00 | 32 | 1009.8 |
| 20260505165545 | 27 | 327 | 0.0 | 9.7 | 0.00 | 0.00 | 0.00 | 33 | 1009.9 |
| 20260505165042 | 27 | 311 | 3.2 | 9.7 | 0.00 | 0.00 | 0.00 | 32 | 1009.9 |
| 20260505164641 | 27 | 156 | 1.6 | 9.7 | 0.00 | 0.00 | 0.00 | 33 | 1010.0 |
| 20260505164043 | 27 | 290 | 4.8 | 17.7 | 0.00 | 0.00 | 0.00 | 32 | 1010.1 |
| 20260505163540 | 27 | 217 | 1.6 | 12.9 | 0.00 | 0.00 | 0.00 | 34 | 1010.1 |
| 20260505163040 | 26 | 312 | 1.6 | 12.9 | 0.00 | 0.00 | 0.00 | 33 | 1010.2 |
| 20260505162543 | 26 | 302 | 3.2 | 8.0 | 0.00 | 0.00 | 0.00 | 33 | 1010.4 |
| 20260505162038 | 26 | 303 | 3.2 | 12.9 | 0.00 | 0.00 | 0.00 | 33 | 1010.4 |
| 20260505161540 | 26 | 307 | 1.6 | 12.9 | 0.00 | 0.00 | 0.00 | 34 | 1010.5 |
| 20260505161038 | 26 | 300 | 3.2 | 12.9 | 0.00 | 0.00 | 0.00 | 34 | 1010.6 |
| 20260505160539 | 26 | 286 | 3.2 | 11.3 | 0.00 | 0.00 | 0.00 | 34 | 1010.6 |
| 20260505153038 | 26 | 300 | 1.6 | 6.4 | 0.00 | 0.00 | 0.00 | 39 | 1010.9 |
| 20260505152533 | 25 | 315 | 0.0 | 6.4 | 0.00 | 0.00 | 0.00 | 38 | 1010.8 |
| 20260505152033 | 25 | 294 | 1.6 | 8.0 | 0.00 | 0.00 | 0.00 | 40 | 1010.8 |
| 20260505151539 | 25 | 291 | 3.2 | 8.0 | 0.00 | 0.00 | 0.00 | 38 | 1010.8 |
| 20260505151031 | 25 | 304 | 1.6 | 8.0 | 0.00 | 0.00 | 0.00 | 40 | 1010.8 |
| 20260505150530 | 25 | 315 | 1.6 | 6.4 | 0.00 | 0.00 | 0.00 | 39 | 1010.8 |
| 20260505140521 | 22 | 296 | 1.6 | 4.8 | 0.00 | 0.00 | 0.00 | 46 | 1011.0 |
| 20260505125002 | 19 | 301 | 0.0 | 6.4 | 0.00 | 0.00 | 0.00 | 54 | 1011.3 |
| 20260505124603 | 19 | 309 | 1.6 | 6.4 | 0.00 | 0.00 | 0.00 | 54 | 1011.4 |
| 20260505124102 | 19 | 296 | 1.6 | 4.8 | 0.00 | 0.00 | 0.00 | 54 | 1011.4 |
| 20260505123557 | 18 | 296 | 0.0 | 3.2 | 0.00 | 0.00 | 0.00 | 55 | 1011.4 |
| 20260505123058 | 18 | 301 | 0.0 | 6.4 | 0.00 | 0.00 | 0.00 | 55 | 1011.4 |
| 20260505122557 | 18 | 308 | 1.6 | 8.0 | 0.00 | 0.00 | 0.00 | 55 | 1011.4 |
| 20260505122057 | 17 | 297 | 3.2 | 8.0 | 0.00 | 0.00 | 0.00 | 56 | 1011.4 |
| 20260505121600 | 17 | 294 | 1.6 | 6.4 | 0.00 | 0.00 | 0.00 | 56 | 1011.4 |
| 20260505121057 | 17 | 302 | 1.6 | 6.4 | 0.00 | 0.00 | 0.00 | 57 | 1011.4 |
| 20260505120557 | 17 | 304 | 3.2 | 6.4 | 0.00 | 0.00 | 0.00 | 56 | 1011.3 |
| 20260505120111 | 17 | 307 | 1.6 | 6.4 | 0.00 | 0.00 | 0.00 | 57 | 1011.3 |
| 20260505115555 | 17 | 319 | 3.2 | 8.0 | 0.00 | 0.00 | 0.00 | 57 | 1011.3 |
| 20260505115055 | 17 | 300 | 3.2 | 8.0 | 0.00 | 0.00 | 0.00 | 58 | 1011.1 |
| 20260505114557 | 16 | 307 | 3.2 | 8.0 | 0.00 | 0.00 | 0.00 | 58 | 1011.1 |
| 20260505114054 | 16 | 303 | 4.8 | 8.0 | 0.00 | 0.00 | 0.00 | 58 | 1011.1 |
| 20260505113557 | 16 | 311 | 1.6 | 9.7 | 0.00 | 0.00 | 0.00 | 59 | 1011.0 |
| 20260505113101 | 16 | 308 | 3.2 | 9.7 | 0.00 | 0.00 | 0.00 | 59 | 1011.1 |
| 20260505112551 | 16 | 297 | 3.2 | 9.7 | 0.00 | 0.00 | 0.00 | 60 | 1011.0 |
| 20260505112052 | 16 | 312 | 4.8 | 9.7 | 0.00 | 0.00 | 0.00 | 59 | 1011.0 |
| 20260505111552 | 16 | 293 | 3.2 | 9.7 | 0.00 | 0.00 | 0.00 | 60 | 1011.0 |
| 20260505111051 | 16 | 297 | 3.2 | 9.7 | 0.00 | 0.00 | 0.00 | 60 | 1010.9 |
| 20260505110550 | 16 | 305 | 3.2 | 8.0 | 0.00 | 0.00 | 0.00 | 60 | 1010.8 |
| 20260505102043 | 15 | 290 | 4.8 | 9.7 | 0.00 | 0.00 | 0.00 | 61 | 1010.2 |
| 20260505101546 | 15 | 311 | 3.2 | 8.0 | 0.00 | 0.00 | 0.00 | 61 | 1010.2 |
| 20260505101043 | 15 | 300 | 3.2 | 8.0 | 0.00 | 0.00 | 0.00 | 62 | 1010.2 |
| 20260505100543 | 15 | 313 | 3.2 | 8.0 | 0.00 | 0.00 | 0.00 | 62 | 1010.2 |
| 20260505100043 | 15 | 293 | 1.6 | 8.0 | 0.00 | 0.00 | 0.00 | 62 | 1010.2 |
| 20260505095542 | 15 | 303 | 3.2 | 8.0 | 0.00 | 0.00 | 0.00 | 62 | 1010.2 |
| 20260505095043 | 15 | 307 | 3.2 | 9.7 | 0.00 | 0.00 | 0.00 | 62 | 1010.2 |
| 20260505094540 | 15 | 299 | 3.2 | 9.7 | 0.00 | 0.00 | 0.00 | 62 | 1010.1 |
| 20260505094040 | 15 | 300 | 4.8 | 9.7 | 0.00 | 0.00 | 0.00 | 62 | 1010.1 |
| 20260505093540 | 15 | 293 | 3.2 | 9.7 | 0.00 | 0.00 | 0.00 | 62 | 1010.0 |
| 20260505093051 | 15 | 308 | 4.8 | 9.7 | 0.00 | 0.00 | 0.00 | 62 | 1010.0 |
| 20260505092539 | 15 | 312 | 3.2 | 8.0 | 0.00 | 0.00 | 0.00 | 62 | 1010.0 |
| 20260505092044 | 15 | 298 | 3.2 | 8.0 | 0.00 | 0.00 | 0.00 | 62 | 1010.0 |
| 20260505091539 | 16 | 310 | 3.2 | 8.0 | 0.00 | 0.00 | 0.00 | 62 | 1009.9 |
| 20260505091038 | 16 | 299 | 3.2 | 6.4 | 0.00 | 0.00 | 0.00 | 63 | 1010.0 |
| 20260505090540 | 15 | 284 | 3.2 | 6.4 | 0.00 | 0.00 | 0.00 | 63 | 1010.0 |
| 20260505090038 | 15 | 304 | 1.6 | 6.4 | 0.00 | 0.00 | 0.00 | 63 | 1010.0 |
| 20260505085542 | 15 | 313 | 3.2 | 6.4 | 0.00 | 0.00 | 0.00 | 63 | 1010.0 |
| 20260505085040 | 15 | 321 | 1.6 | 6.4 | 0.00 | 0.00 | 0.00 | 64 | 1010.0 |
| 20260505084537 | 15 | 308 | 1.6 | 4.8 | 0.00 | 0.00 | 0.00 | 64 | 1010.1 |
| 20260505084035 | 15 | 302 | 0.0 | 4.8 | 0.00 | 0.00 | 0.00 | 64 | 1010.0 |
| 20260505083538 | 16 | 306 | 0.0 | 6.4 | 0.00 | 0.00 | 0.00 | 64 | 1009.9 |
| 20260505083040 | 16 | 308 | 1.6 | 6.4 | 0.00 | 0.00 | 0.00 | 64 | 1009.9 |
| 20260505082536 | 16 | 309 | 3.2 | 6.4 | 0.00 | 0.00 | 0.00 | 63 | 1009.9 |
| 20260505082035 | 16 | 295 | 3.2 | 6.4 | 0.00 | 0.00 | 0.00 | 63 | 1009.9 |
| 20260505081535 | 16 | 300 | 3.2 | 6.4 | 0.00 | 0.00 | 0.00 | 63 | 1009.9 |
| 20260505081035 | 16 | 301 | 3.2 | 6.4 | 0.00 | 0.00 | 0.00 | 64 | 1009.9 |
| 20260505080533 | 16 | 295 | 1.6 | 6.4 | 0.00 | 0.00 | 0.00 | 64 | 1009.9 |
| 20260505080035 | 16 | 305 | 1.6 | 6.4 | 0.00 | 0.00 | 0.00 | 64 | 1009.9 |
| 20260505075533 | 16 | 297 | 1.6 | 4.8 | 0.00 | 0.00 | 0.00 | 64 | 1009.9 |
| 20260505075034 | 16 | 306 | 1.6 | 4.8 | 0.00 | 0.00 | 0.00 | 64 | 1009.8 |
| 20260505074534 | 16 | 316 | 1.6 | 4.8 | 0.00 | 0.00 | 0.00 | 64 | 1009.7 |
| 20260505074032 | 16 | 310 | 1.6 | 6.4 | 0.00 | 0.00 | 0.00 | 63 | 1009.7 |
| 20260505073532 | 16 | 304 | 1.6 | 6.4 | 0.00 | 0.00 | 0.00 | 63 | 1009.6 |
| 20260505073133 | 16 | 333 | 1.6 | 6.4 | 0.00 | 0.00 | 0.00 | 63 | 1009.5 |
| 20260505072531 | 16 | 300 | 1.6 | 6.4 | 0.00 | 0.00 | 0.00 | 63 | 1009.5 |
| 20260505072031 | 16 | 294 | 3.2 | 9.7 | 0.00 | 0.00 | 0.00 | 63 | 1009.6 |
| 20260505071533 | 16 | 301 | 3.2 | 9.7 | 0.00 | 0.00 | 0.00 | 63 | 1009.6 |
| 20260505071031 | 16 | 306 | 1.6 | 4.8 | 0.00 | 0.00 | 0.00 | 63 | 1009.6 |
| 20260505070531 | 16 | 297 | 0.0 | 3.2 | 0.00 | 0.00 | 0.00 | 63 | 1009.6 |
| 20260505070034 | 16 | 315 | 0.0 | 4.8 | 0.00 | 0.00 | 0.00 | 63 | 1009.6 |
| 20260505065531 | 16 | 301 | 0.0 | 6.4 | 0.00 | 0.00 | 0.00 | 63 | 1009.6 |
| 20260505065030 | 17 | 307 | 0.0 | 6.4 | 0.00 | 0.00 | 0.00 | 63 | 1009.6 |
| 20260505064529 | 17 | 304 | 0.0 | 6.4 | 0.00 | 0.00 | 0.00 | 63 | 1009.6 |
| 20260505064030 | 17 | 286 | 1.6 | 6.4 | 0.00 | 0.00 | 0.00 | 62 | 1009.6 |
| 20260505063529 | 16 | 298 | 0.0 | 4.8 | 0.00 | 0.00 | 0.00 | 63 | 1009.6 |
| 20260505063030 | 16 | 316 | 0.0 | 4.8 | 0.00 | 0.00 | 0.00 | 64 | 1009.7 |
| 20260505062530 | 16 | 300 | 1.6 | 4.8 | 0.00 | 0.00 | 0.00 | 64 | 1009.6 |
| 20260505062029 | 16 | 287 | 0.0 | 3.2 | 0.00 | 0.00 | 0.00 | 65 | 1009.6 |
| 20260505061538 | 16 | 311 | 0.0 | 3.2 | 0.00 | 0.00 | 0.00 | 64 | 1009.6 |
| 20260505061032 | 16 | 306 | 0.0 | 3.2 | 0.00 | 0.00 | 0.00 | 65 | 1009.6 |
| 20260505060529 | 16 | 309 | 0.0 | 3.2 | 0.00 | 0.00 | 0.00 | 66 | 1009.6 |
| 20260505060029 | 16 | 312 | 0.0 | 1.6 | 0.00 | 0.00 | 0.00 | 68 | 1009.7 |
| 20260505055529 | 15 | 294 | 0.0 | 1.6 | 0.00 | 0.00 | 0.00 | 68 | 1009.6 |
| 20260505055029 | 15 | 306 | 0.0 | 1.6 | 0.00 | 0.00 | 0.00 | 68 | 1009.5 |
| 20260505054541 | 15 | 306 | 0.0 | 1.6 | 0.00 | 0.00 | 0.00 | 69 | 1009.5 |
| 20260505054027 | 15 | 284 | 0.0 | 0.0 | 0.00 | 0.00 | 0.00 | 69 | 1009.5 |
| 20260505053527 | 15 | 284 | 0.0 | 0.0 | 0.00 | 0.00 | 0.00 | 68 | 1009.6 |
| 20260505053027 | 15 | 284 | 0.0 | 0.0 | 0.00 | 0.00 | 0.00 | 68 | 1009.5 |
| 20260505052526 | 15 | 284 | 0.0 | 0.0 | 0.00 | 0.00 | 0.00 | 68 | 1009.4 |
| 20260505052025 | 16 | 284 | 0.0 | 0.0 | 0.00 | 0.00 | 0.00 | 67 | 1009.5 |
| 20260505051523 | 16 | 284 | 0.0 | 0.0 | 0.00 | 0.00 | 0.00 | 66 | 1009.6 |
| 20260505051022 | 16 | 284 | 0.0 | 1.6 | 0.00 | 0.00 | 0.00 | 66 | 1009.6 |
| 20260505050521 | 16 | 284 | 0.0 | 1.6 | 0.00 | 0.00 | 0.00 | 65 | 1009.6 |
| 20260505041508 | 18 | 304 | 0.0 | 4.8 | 0.00 | 0.00 | 0.00 | 58 | 1009.9 |
| 20260505041008 | 18 | 302 | 0.0 | 6.4 | 0.00 | 0.00 | 0.00 | 57 | 1009.7 |
| 20260505040507 | 18 | 289 | 1.6 | 6.4 | 0.00 | 0.00 | 0.00 | 57 | 1009.7 |
| 20260505040016 | 18 | 295 | 1.6 | 6.4 | 0.00 | 0.00 | 0.00 | 56 | 1009.8 |
| 20260505035511 | 18 | 286 | 3.2 | 6.4 | 0.00 | 0.00 | 0.00 | 56 | 1009.8 |
| 20260505035005 | 18 | 319 | 1.6 | 6.4 | 0.00 | 0.00 | 0.00 | 56 | 1009.7 |
| 20260505034505 | 18 | 304 | 1.6 | 6.4 | 0.00 | 0.00 | 0.00 | 55 | 1009.7 |
| 20260505034005 | 18 | 314 | 1.6 | 6.4 | 0.00 | 0.00 | 0.00 | 55 | 1009.6 |
| 20260505033505 | 19 | 302 | 1.6 | 6.4 | 0.00 | 0.00 | 0.00 | 55 | 1009.7 |
| 20260505033011 | 19 | 305 | 1.6 | 6.4 | 0.00 | 0.00 | 0.00 | 54 | 1009.7 |
| 20260505032507 | 19 | 302 | 3.2 | 6.4 | 0.00 | 0.00 | 0.00 | 54 | 1009.7 |
| 20260505032005 | 19 | 302 | 1.6 | 4.8 | 0.00 | 0.00 | 0.00 | 54 | 1009.7 |
| 20260505031504 | 19 | 303 | 1.6 | 4.8 | 0.00 | 0.00 | 0.00 | 53 | 1009.7 |
| 20260505031004 | 19 | 300 | 0.0 | 4.8 | 0.00 | 0.00 | 0.00 | 52 | 1009.7 |
| 20260505030504 | 20 | 309 | 1.6 | 4.8 | 0.00 | 0.00 | 0.00 | 52 | 1009.7 |
| 20260505030010 | 20 | 293 | 0.0 | 4.8 | 0.00 | 0.00 | 0.00 | 52 | 1009.6 |
| 20260505025503 | 20 | 294 | 1.6 | 4.8 | 0.00 | 0.00 | 0.00 | 51 | 1009.7 |
| 20260505025002 | 20 | 305 | 0.0 | 4.8 | 0.00 | 0.00 | 0.00 | 51 | 1009.7 |